WBANNO,USDM_WEEK,LONGITUDE,LATITUDE,SMVWC_5_CM_MEAN,SMANOM_5_CM_MEAN,SMPERC_5_CM_30COUNTS,SMPERC_5_CM_70COUNTS,SMVWC_10_CM_MEAN,SMANOM_10_CM_MEAN,SMPERC_10_CM_30COUNTS,SMPERC_10_CM_70COUNTS,SMVWC_20_CM_MEAN,SMANOM_20_CM_MEAN,SMPERC_20_CM_30COUNTS,SMPERC_20_CM_70COUNTS,SMVWC_50_CM_MEAN,SMANOM_50_CM_MEAN,SMPERC_50_CM_30COUNTS,SMPERC_50_CM_70COUNTS,SMVWC_100_CM_MEAN,SMANOM_100_CM_MEAN,SMPERC_100_CM_30COUNTS,SMPERC_100_CM_70COUNTS,SMVWC_TOP_CM_MEAN,SMANOM_TOP_CM_MEAN,SMPERC_TOP_CM_30COUNTS,SMPERC_TOP_CM_70COUNTS,SMVWC_COLUMN_CM_MEAN,SMANOM_COLUMN_CM_MEAN,SMPERC_COLUMN_CM_30COUNTS,SMPERC_COLUMN_CM_70COUNTS
03759,20110418,-78.47,38,,,,,,,,,,,,,,,,,,,,,,,,,,,,
03759,20110419,-78.47,38,,,,,,,,,,,,,,,,,,,,,,,,,,,,
03759,20110420,-78.47,38,,,,,,,,,,,,,,,,,,,,,,,,,,,,
03759,20110421,-78.47,38,,,,,,,,,,,,,,,,,,,,,,,,,,,,
03759,20110422,-78.47,38,,,,,,,,,,,,,,,,,,,,,,,,,,,,
03759,20110423,-78.47,38,0.397,0.68,0,0.862,0.375,0.5,0,0.862,,,,,,,,,,,,,0.386,0.62,0,0.877,,,,
03759,20110424,-78.47,38,0.404,0.73,0,0.883,0.381,0.55,0,0.883,,,,,,,,,,,,,0.392,0.67,0,0.895,,,,
03759,20110425,-78.47,38,0.405,0.74,0,0.887,0.384,0.58,0,0.887,,,,,,,,,,,,,0.395,0.69,0,0.899,,,,
03759,20110426,-78.47,38,0.404,0.72,0,0.887,0.385,0.59,0,0.887,,,,,,,,,,,,,0.394,0.68,0,0.899,,,,
03759,20110427,-78.47,38,0.407,0.75,0,0.887,0.391,0.64,0,0.887,,,,,,,,,,,,,0.399,0.72,0,0.899,,,,
03759,20110428,-78.47,38,0.42,0.85,0,0.887,0.401,0.74,0,0.887,,,,,,,,,,,,,0.411,0.82,0,0.899,,,,
03759,20110429,-78.47,38,0.435,0.97,0,0.923,0.414,0.86,0,0.923,,,,,,,,,,,,,0.425,0.94,0,0.923,,,,
03759,20110430,-78.47,38,0.444,1.03,0,1,0.42,0.91,0,1,,,,,,,,,,,,,0.432,0.99,0,1,,,,
03759,20110501,-78.47,38,0.443,1.01,0,1,0.42,0.9,0,1,,,,,,,,,,,,,0.432,0.97,0,1,,,,
03759,20110502,-78.47,38,0.442,0.99,0,1,0.421,0.89,0,1,,,,,,,,,,,,,0.431,0.95,0,1,,,,
03759,20110503,-78.47,38,0.442,0.98,0,1,0.421,0.89,0,1,,,,,,,,,,,,,0.432,0.94,0,1,,,,
03759,20110504,-78.47,38,0.439,0.94,0,0.982,0.419,0.86,0,1,,,,,,,,,,,,,0.429,0.91,0,1,,,,
03759,20110505,-78.47,38,0.438,0.92,0,0.982,0.418,0.84,0,1,,,,,,,,,,,,,0.428,0.88,0,1,,,,
03759,20110506,-78.47,38,0.434,0.88,0,0.982,0.414,0.8,0,1,,,,,,,,,,,,,0.424,0.84,0,1,,,,
03759,20110507,-78.47,38,0.431,0.85,0,0.982,0.412,0.78,0,1,,,,,,,,,,,,,0.421,0.82,0,1,,,,
03759,20110508,-78.47,38,0.428,0.82,0,0.982,0.409,0.76,0,1,,,,,,,,,,,,,0.419,0.8,0,1,,,,
03759,20110509,-78.47,38,0.425,0.8,0,0.982,0.407,0.73,0,1,,,,,,,,,,,,,0.416,0.77,0,1,,,,
03759,20110510,-78.47,38,0.422,0.76,0,0.845,0.405,0.71,0,0.97,,,,,,,,,,,,,0.414,0.74,0,0.899,,,,
03759,20110511,-78.47,38,0.414,0.69,0,0.72,0.401,0.67,0,0.827,,,,,,,,,,,,,0.408,0.69,0,0.756,,,,
03759,20110512,-78.47,38,0.395,0.54,0,0.577,0.39,0.57,0,0.685,,,,,,,,,,,,,0.393,0.56,0,0.613,,,,
03759,20110513,-78.47,38,0.379,0.4,0,0.435,0.383,0.5,0,0.577,,,,,,,,,,,,,0.381,0.45,0,0.506,,,,
03759,20110514,-78.47,38,0.371,0.34,0,0.292,0.381,0.49,0,0.577,,,,,,,,,,,,,0.376,0.41,0,0.506,,,,
03759,20110515,-78.47,38,0.37,0.33,0,0.274,0.384,0.51,0,0.577,,,,,,,,,,,,,0.377,0.42,0,0.506,,,,
03759,20110516,-78.47,38,0.378,0.4,0,0.274,0.392,0.58,0,0.577,,,,,,,,,,,,,0.385,0.49,0,0.506,,,,
03759,20110517,-78.47,38,0.392,0.51,0,0.411,0.402,0.66,0,0.607,,,,,,,,,,,,,0.397,0.59,0,0.607,,,,
03759,20110518,-78.47,38,0.414,0.68,0,0.554,0.416,0.79,0,0.75,,,,,,,,,,,,,0.415,0.75,0,0.75,,,,
03759,20110519,-78.47,38,0.434,0.84,0,0.696,0.428,0.9,0,0.893,,,,,,,,,,,,,0.431,0.89,0,0.893,,,,
03759,20110520,-78.47,38,0.451,0.98,0,0.839,0.438,0.98,0,1,,,,,,,,,,,,,0.445,1,0,1,,,,
03759,20110521,-78.47,38,0.461,1.06,0,0.982,0.441,1.01,0,1,,,,,,,,,,,,,0.451,1.06,0,1,,,,
03759,20110522,-78.47,38,0.463,1.08,0,1,0.441,1.01,0,1,,,,,,,,,,,,,0.452,1.07,0,1,,,,
03759,20110523,-78.47,38,0.456,1.03,0,1,0.434,0.96,0,1,,,,,,,,,,,,,0.445,1.01,0,1,,,,
03759,20110524,-78.47,38,0.448,0.97,0,1,0.427,0.9,0,1,,,,,,,,,,,,,0.437,0.95,0,1,,,,
03759,20110525,-78.47,38,0.433,0.86,0,1,0.416,0.81,0,1,,,,,,,,,,,,,0.424,0.85,0,1,,,,
03759,20110526,-78.47,38,0.419,0.76,0,1,0.407,0.74,0,1,,,,,,,,,,,,,0.413,0.76,0,1,,,,
03759,20110527,-78.47,38,0.404,0.66,0,0.893,0.397,0.67,0,1,,,,,,,,,,,,,0.401,0.67,0,0.946,,,,
03759,20110528,-78.47,38,0.387,0.54,0,0.75,0.387,0.59,0,0.917,,,,,,,,,,,,,0.387,0.58,0,0.804,,,,
03759,20110529,-78.47,38,0.372,0.44,0,0.607,0.376,0.51,0,0.774,,,,,,,,,,,,,0.374,0.49,0,0.661,,,,
03759,20110530,-78.47,38,0.356,0.34,0,0.464,0.365,0.43,0,0.631,,,,,,,,,,,,,0.361,0.4,0,0.518,,,,
03759,20110531,-78.47,38,0.337,0.22,0,0.321,0.351,0.33,0,0.488,,,,,,,,,,,,,0.344,0.29,0,0.375,,,,
03759,20110601,-78.47,38,0.317,0.09,0,0.179,0.335,0.22,0,0.345,,,,,,,,,,,,,0.326,0.16,0,0.232,,,,
03759,20110602,-78.47,38,0.297,-0.04,0.077,0.036,0.319,0.1,0,0.202,,,,,,,,,,,,,0.308,0.04,0.054,0.089,,,,
03759,20110603,-78.47,38,0.278,-0.16,0.22,0,0.301,-0.03,0.083,0.06,,,,,,,,,,,,,0.29,-0.09,0.196,0,,,,
03759,20110604,-78.47,38,0.26,-0.27,0.363,0,0.284,-0.15,0.226,0,,,,,,,,,,,,,0.272,-0.22,0.339,0,,,,
03759,20110605,-78.47,38,0.242,-0.39,0.506,0,0.267,-0.28,0.369,0,,,,,,,,,,,,,0.255,-0.34,0.482,0,,,,
03759,20110606,-78.47,38,0.226,-0.5,0.649,0,0.251,-0.4,0.512,0,,,,,,,,,,,,,0.238,-0.46,0.625,0,,,,
03759,20110607,-78.47,38,0.211,-0.59,0.792,0,0.237,-0.51,0.655,0,,,,,,,,,,,,,0.224,-0.56,0.768,0,,,,
03759,20110608,-78.47,38,0.198,-0.67,0.935,0,0.225,-0.61,0.798,0,,,,,,,,,,,,,0.212,-0.65,0.911,0,,,,
03759,20110609,-78.47,38,0.188,-0.73,1,0,0.215,-0.68,0.94,0,,,,,,,,,,,,,0.202,-0.72,1,0,,,,
03759,20110610,-78.47,38,0.18,-0.78,1,0,0.208,-0.74,1,0,,,,,,,,,,,,,0.194,-0.77,1,0,,,,
03759,20110611,-78.47,38,0.175,-0.82,1,0,0.203,-0.78,1,0,,,,,,,,,,,,,0.189,-0.82,1,0,,,,
03759,20110612,-78.47,38,0.171,-0.84,1,0,0.2,-0.8,1,0,,,,,,,,,,,,,0.186,-0.84,1,0,,,,
03759,20110613,-78.47,38,0.173,-0.83,1,0,0.205,-0.75,0.899,0,,,,,,,,,,,,,0.189,-0.8,0.958,0,,,,
03759,20110614,-78.47,38,0.175,-0.8,1,0,0.211,-0.69,0.821,0,,,,,,,,,,,,,0.193,-0.76,0.958,0,,,,
03759,20110615,-78.47,38,0.176,-0.78,1,0,0.214,-0.64,0.821,0,,,,,,,,,,,,,0.195,-0.73,0.958,0,,,,
03759,20110616,-78.47,38,0.177,-0.76,1,0,0.216,-0.61,0.821,0,,,,,,,,,,,,,0.197,-0.7,0.958,0,,,,
03759,20110617,-78.47,38,0.178,-0.74,1,0,0.217,-0.58,0.821,0,,,,,,,,,,,,,0.198,-0.67,0.958,0,,,,
03759,20110618,-78.47,38,0.18,-0.7,1,0,0.219,-0.54,0.821,0,,,,,,,,,,,,,0.199,-0.64,0.958,0,,,,
03759,20110619,-78.47,38,0.18,-0.68,1,0,0.219,-0.52,0.821,0,,,,,,,,,,,,,0.199,-0.62,0.958,0,,,,
03759,20110620,-78.47,38,0.183,-0.65,0.958,0,0.218,-0.51,0.875,0.042,,,,,,,,,,,,,0.2,-0.6,0.952,0.03,,,,
03759,20110621,-78.47,38,0.197,-0.53,0.815,0,0.23,-0.4,0.81,0.149,,,,,,,,,,,,,0.214,-0.48,0.81,0.042,,,,
03759,20110622,-78.47,38,0.216,-0.38,0.673,0.071,0.246,-0.25,0.667,0.244,,,,,,,,,,,,,0.231,-0.34,0.667,0.137,,,,
03759,20110623,-78.47,38,0.236,-0.24,0.53,0.071,0.264,-0.1,0.524,0.387,,,,,,,,,,,,,0.25,-0.18,0.524,0.232,,,,
03759,20110624,-78.47,38,0.254,-0.09,0.387,0.071,0.283,0.06,0.381,0.53,,,,,,,,,,,,,0.268,-0.03,0.381,0.238,,,,
03759,20110625,-78.47,38,0.269,0.03,0.244,0.071,0.299,0.21,0.238,0.577,,,,,,,,,,,,,0.284,0.11,0.238,0.238,,,,
03759,20110626,-78.47,38,0.283,0.15,0.101,0.071,0.314,0.34,0.095,0.577,,,,,,,,,,,,,0.298,0.24,0.095,0.238,,,,
03759,20110627,-78.47,38,0.294,0.25,0,0.125,0.324,0.42,0,0.583,,,,,,,,,,,,,0.309,0.33,0,0.262,,,,
03759,20110628,-78.47,38,0.299,0.29,0,0.262,0.326,0.45,0,0.619,,,,,,,,,,,,,0.313,0.37,0,0.393,,,,
03759,20110629,-78.47,38,0.305,0.35,0,0.327,0.329,0.47,0,0.667,,,,,,,,,,,,,0.317,0.41,0,0.44,,,,
03759,20110630,-78.47,38,0.311,0.4,0,0.47,0.331,0.5,0,0.667,,,,,,,,,,,,,0.321,0.45,0,0.488,,,,
03759,20110701,-78.47,38,0.316,0.45,0,0.613,0.333,0.52,0,0.667,,,,,,,,,,,,,0.324,0.49,0,0.625,,,,
03759,20110702,-78.47,38,0.319,0.48,0,0.661,0.334,0.54,0,0.762,,,,,,,,,,,,,0.326,0.51,0,0.714,,,,
03759,20110703,-78.47,38,0.322,0.52,0,0.673,0.335,0.56,0,0.792,,,,,,,,,,,,,0.328,0.54,0,0.726,,,,
03759,20110704,-78.47,38,0.333,0.6,0,0.762,0.341,0.63,0,0.887,,,,,,,,,,,,,0.337,0.61,0,0.815,,,,
03759,20110705,-78.47,38,0.341,0.67,0,0.768,0.347,0.68,0,0.887,,,,,,,,,,,,,0.344,0.67,0,0.815,,,,
03759,20110706,-78.47,38,0.344,0.7,0,0.774,0.35,0.73,0,0.887,,,,,,,,,,,,,0.347,0.71,0,0.815,,,,
03759,20110707,-78.47,38,0.348,0.74,0,0.774,0.354,0.78,0,0.887,,,,,,,,,,,,,0.351,0.76,0,0.815,,,,
03759,20110708,-78.47,38,0.353,0.8,0,0.774,0.359,0.86,0,0.887,,,,,,,,,,,,,0.356,0.83,0,0.815,,,,
03759,20110709,-78.47,38,0.363,0.9,0,0.869,0.366,0.95,0,0.887,,,,,,,,,,,,,0.365,0.93,0,0.869,,,,
03759,20110710,-78.47,38,0.376,1.03,0,1,0.376,1.06,0,1,,,,,,,,,,,,,0.376,1.05,0,1,,,,
03759,20110711,-78.47,38,0.375,1.07,0,1,0.376,1.1,0,1,,,,,,,,,,,,,0.375,1.09,0,1,,,,
03759,20110712,-78.47,38,0.366,1.06,0,1,0.37,1.1,0,1,,,,,,,,,,,,,0.368,1.09,0,1,,,,
03759,20110713,-78.47,38,0.355,1.03,0,1,0.362,1.08,0,1,,,,,,,,,,,,,0.358,1.06,0,1,,,,
03759,20110714,-78.47,38,0.35,1.05,0,1,0.356,1.07,0,1,,,,,,,,,,,,,0.353,1.07,0,1,,,,
03759,20110715,-78.47,38,0.35,1.1,0,1,0.352,1.08,0,1,,,,,,,,,,,,,0.351,1.11,0,1,,,,
03759,20110716,-78.47,38,0.343,1.1,0,1,0.347,1.06,0,1,,,,,,,,,,,,,0.345,1.1,0,1,,,,
03759,20110717,-78.47,38,0.332,1.06,0,1,0.338,1.03,0,1,,,,,,,,,,,,,0.335,1.06,0,1,,,,
03759,20110718,-78.47,38,0.32,1,0,1,0.329,0.98,0,1,,,,,,,,,,,,,0.324,1.01,0,1,,,,
03759,20110719,-78.47,38,0.307,0.93,0,0.917,0.32,0.94,0,1,,,,,,,,,,,,,0.314,0.95,0,1,,,,
03759,20110720,-78.47,38,0.296,0.87,0,0.78,0.312,0.89,0,1,,,,,,,,,,,,,0.304,0.9,0,0.917,,,,
03759,20110721,-78.47,38,0.276,0.73,0,0.637,0.298,0.8,0,0.994,,,,,,,,,,,,,0.287,0.78,0,0.774,,,,
03759,20110722,-78.47,38,0.253,0.56,0,0.494,0.281,0.68,0,0.899,,,,,,,,,,,,,0.267,0.63,0,0.631,,,,
03759,20110723,-78.47,38,0.231,0.4,0,0.351,0.264,0.56,0,0.756,,,,,,,,,,,,,0.247,0.49,0,0.488,,,,
03759,20110724,-78.47,38,0.214,0.28,0,0.208,0.249,0.45,0,0.613,,,,,,,,,,,,,0.231,0.37,0,0.345,,,,
03759,20110725,-78.47,38,0.201,0.18,0,0.065,0.236,0.35,0,0.47,,,,,,,,,,,,,0.219,0.28,0,0.202,,,,
03759,20110726,-78.47,38,0.191,0.11,0,0.006,0.226,0.27,0,0.327,,,,,,,,,,,,,0.209,0.2,0,0.06,,,,
03759,20110727,-78.47,38,0.184,0.05,0,0,0.217,0.2,0,0.185,,,,,,,,,,,,,0.2,0.14,0,0,,,,
03759,20110728,-78.47,38,0.177,-0.01,0,0,0.21,0.14,0,0.048,,,,,,,,,,,,,0.193,0.08,0,0,,,,
03759,20110729,-78.47,38,0.171,-0.06,0,0,0.204,0.08,0,0,,,,,,,,,,,,,0.188,0.02,0,0,,,,
03759,20110730,-78.47,38,0.167,-0.1,0.06,0,0.199,0.04,0,0,,,,,,,,,,,,,0.183,-0.03,0,0,,,,
03759,20110731,-78.47,38,0.162,-0.15,0.202,0,0.195,-0.01,0,0,,,,,,,,,,,,,0.179,-0.08,0,0,,,,
03759,20110801,-78.47,38,0.158,-0.2,0.345,0,0.19,-0.05,0,0,,,,,,,,,,,,,0.174,-0.13,0.071,0,,,,
03759,20110802,-78.47,38,0.153,-0.25,0.488,0,0.186,-0.1,0,0,,,,,,,,,,,,,0.169,-0.18,0.214,0,,,,
03759,20110803,-78.47,38,0.145,-0.34,0.631,0,0.18,-0.16,0.131,0,,,,,,,,,,,,,0.162,-0.25,0.357,0,,,,
03759,20110804,-78.47,38,0.137,-0.43,0.774,0,0.174,-0.21,0.274,0,,,,,,,,,,,,,0.155,-0.32,0.5,0,,,,
03759,20110805,-78.47,38,0.13,-0.5,0.917,0,0.169,-0.26,0.417,0,,,,,,,,,,,,,0.149,-0.39,0.643,0,,,,
03759,20110806,-78.47,38,0.123,-0.57,1,0,0.165,-0.3,0.56,0,,,,,,,,,,,,,0.144,-0.45,0.786,0,,,,
03759,20110807,-78.47,38,0.118,-0.63,1,0,0.162,-0.33,0.702,0,,,,,,,,,,,,,0.14,-0.49,0.929,0,,,,
03759,20110808,-78.47,38,0.116,-0.66,1,0,0.163,-0.32,0.756,0,,,,,,,,,,,,,0.14,-0.51,0.976,0,,,,
03759,20110809,-78.47,38,0.116,-0.67,1,0,0.166,-0.31,0.756,0,,,,,,,,,,,,,0.141,-0.51,0.976,0,,,,
03759,20110810,-78.47,38,0.12,-0.64,1,0,0.17,-0.29,0.655,0,,,,,,,,,,,,,0.145,-0.49,0.976,0,,,,
03759,20110811,-78.47,38,0.125,-0.61,1,0,0.174,-0.27,0.595,0,,,,,,,,,,,,,0.15,-0.47,0.976,0,,,,
03759,20110812,-78.47,38,0.128,-0.6,1,0,0.178,-0.27,0.595,0,,,,,,,,,,,,,0.153,-0.46,0.976,0,,,,
03759,20110813,-78.47,38,0.131,-0.58,1,0,0.181,-0.26,0.595,0,,,,,,,,,,,,,0.156,-0.45,0.976,0,,,,
03759,20110814,-78.47,38,0.137,-0.55,0.958,0,0.188,-0.23,0.548,0.03,,,,,,,,,,,,,0.162,-0.41,0.929,0,,,,
03759,20110815,-78.47,38,0.148,-0.47,0.815,0,0.206,-0.13,0.494,0.101,,,,,,,,,,,,,0.177,-0.31,0.81,0.042,,,,
03759,20110816,-78.47,38,0.159,-0.4,0.673,0,0.223,-0.03,0.494,0.214,,,,,,,,,,,,,0.191,-0.22,0.667,0.042,,,,
03759,20110817,-78.47,38,0.168,-0.33,0.53,0,0.238,0.06,0.464,0.268,,,,,,,,,,,,,0.203,-0.13,0.524,0.042,,,,
03759,20110818,-78.47,38,0.177,-0.26,0.387,0,0.252,0.14,0.381,0.268,,,,,,,,,,,,,0.214,-0.06,0.381,0.042,,,,
03759,20110819,-78.47,38,0.186,-0.2,0.244,0,0.263,0.21,0.238,0.268,,,,,,,,,,,,,0.224,0.01,0.238,0.042,,,,
03759,20110820,-78.47,38,0.194,-0.13,0.101,0,0.274,0.27,0.095,0.268,,,,,,,,,,,,,0.234,0.08,0.095,0.042,,,,
03759,20110821,-78.47,38,0.198,-0.09,0,0,0.278,0.29,0,0.238,,,,,,,,,,,,,0.238,0.11,0,0.042,,,,
03759,20110822,-78.47,38,0.199,-0.08,0,0,0.277,0.27,0,0.268,,,,,,,,,,,,,0.238,0.1,0,0.036,,,,
03759,20110823,-78.47,38,0.199,-0.08,0,0,0.275,0.25,0,0.22,,,,,,,,,,,,,0.237,0.08,0,0.036,,,,
03759,20110824,-78.47,38,0.198,-0.09,0,0,0.273,0.23,0,0.167,,,,,,,,,,,,,0.235,0.06,0,0.036,,,,
03759,20110825,-78.47,38,0.196,-0.11,0,0,0.271,0.2,0,0.167,,,,,,,,,,,,,0.233,0.04,0,0.036,,,,
03759,20110826,-78.47,38,0.2,-0.09,0,0,0.275,0.22,0,0.202,,,,,,,,,,,,,0.238,0.06,0,0.036,,,,
03759,20110827,-78.47,38,0.204,-0.06,0,0,0.281,0.25,0,0.202,,,,,,,,,,,,,0.243,0.1,0,0.036,,,,
03759,20110828,-78.47,38,0.216,0.02,0,0.054,0.296,0.36,0,0.298,,,,,,,,,,,,,0.256,0.19,0,0.125,,,,
03759,20110829,-78.47,38,0.219,0.05,0,0.054,0.302,0.4,0,0.339,,,,,,,,,,,,,0.261,0.23,0,0.19,,,,
03759,20110830,-78.47,38,0.221,0.06,0,0.054,0.306,0.41,0,0.417,,,,,,,,,,,,,0.263,0.24,0,0.19,,,,
03759,20110831,-78.47,38,0.222,0.07,0,0.054,0.309,0.43,0,0.435,,,,,,,,,,,,,0.266,0.26,0,0.19,,,,
03759,20110901,-78.47,38,0.223,0.08,0,0.054,0.312,0.45,0,0.435,,,,,,,,,,,,,0.268,0.27,0,0.19,,,,
03759,20110902,-78.47,38,0.219,0.05,0,0.054,0.309,0.42,0,0.405,,,,,,,,,,,,,0.264,0.25,0,0.196,,,,
03759,20110903,-78.47,38,0.222,0.09,0,0.054,0.315,0.46,0,0.548,,,,,,,,,,,,,0.269,0.29,0,0.298,,,,
03759,20110904,-78.47,38,0.217,0.05,0,0,0.309,0.42,0,0.506,,,,,,,,,,,,,0.263,0.26,0,0.208,,,,
03759,20110905,-78.47,38,0.211,0.01,0,0,0.3,0.36,0,0.363,,,,,,,,,,,,,0.256,0.21,0,0.107,,,,
03759,20110906,-78.47,38,0.217,0.07,0,0.06,0.301,0.38,0,0.28,,,,,,,,,,,,,0.259,0.25,0,0.167,,,,
03759,20110907,-78.47,38,0.235,0.24,0,0.202,0.317,0.5,0,0.405,,,,,,,,,,,,,0.276,0.4,0,0.31,,,,
03759,20110908,-78.47,38,0.251,0.39,0,0.345,0.331,0.61,0,0.548,,,,,,,,,,,,,0.291,0.54,0,0.452,,,,
03759,20110909,-78.47,38,0.267,0.54,0,0.488,0.345,0.73,0,0.685,,,,,,,,,,,,,0.306,0.68,0,0.589,,,,
03759,20110910,-78.47,38,0.274,0.62,0,0.631,0.35,0.77,0,0.685,,,,,,,,,,,,,0.312,0.74,0,0.631,,,,
03759,20110911,-78.47,38,0.281,0.69,0,0.774,0.356,0.82,0,0.774,,,,,,,,,,,,,0.318,0.81,0,0.774,,,,
03759,20110912,-78.47,38,0.292,0.8,0,0.917,0.365,0.9,0,0.917,,,,,,,,,,,,,0.328,0.91,0,0.917,,,,
03759,20110913,-78.47,38,0.297,0.85,0,1,0.371,0.95,0,1,,,,,,,,,,,,,0.334,0.97,0,1,,,,
03759,20110914,-78.47,38,0.29,0.8,0,1,0.365,0.9,0,1,,,,,,,,,,,,,0.328,0.93,0,1,,,,
03759,20110915,-78.47,38,0.285,0.75,0,1,0.362,0.87,0,1,,,,,,,,,,,,,0.323,0.9,0,1,,,,
03759,20110916,-78.47,38,0.279,0.7,0,1,0.359,0.83,0,1,,,,,,,,,,,,,0.319,0.86,0,1,,,,
03759,20110917,-78.47,38,0.274,0.64,0,0.917,0.355,0.78,0,1,,,,,,,,,,,,,0.314,0.82,0,1,,,,
03759,20110918,-78.47,38,0.27,0.6,0,0.774,0.352,0.74,0,1,,,,,,,,,,,,,0.311,0.78,0,1,,,,
03759,20110919,-78.47,38,0.262,0.52,0,0.631,0.349,0.68,0,0.952,,,,,,,,,,,,,0.306,0.72,0,0.946,,,,
03759,20110920,-78.47,38,0.251,0.4,0,0.488,0.339,0.59,0,0.81,,,,,,,,,,,,,0.295,0.61,0,0.804,,,,
03759,20110921,-78.47,38,0.249,0.37,0,0.482,0.33,0.51,0,0.667,,,,,,,,,,,,,0.29,0.55,0,0.804,,,,
03759,20110922,-78.47,38,0.249,0.35,0,0.482,0.323,0.44,0,0.524,,,,,,,,,,,,,0.286,0.5,0,0.804,,,,
03759,20110923,-78.47,38,0.249,0.34,0,0.435,0.317,0.39,0,0.381,,,,,,,,,,,,,0.283,0.46,0,0.792,,,,
03759,20110924,-78.47,38,0.259,0.4,0,0.518,0.324,0.42,0,0.375,,,,,,,,,,,,,0.292,0.51,0,0.792,,,,
03759,20110925,-78.47,38,0.27,0.47,0,0.661,0.331,0.45,0,0.375,,,,,,,,,,,,,0.3,0.56,0,0.792,,,,
03759,20110926,-78.47,38,0.285,0.57,0,0.804,0.341,0.51,0,0.423,,,,,,,,,,,,,0.313,0.63,0,0.845,,,,
03759,20110927,-78.47,38,0.302,0.67,0,0.946,0.353,0.57,0,0.565,,,,,,,,,,,,,0.327,0.71,0,0.988,,,,
03759,20110928,-78.47,38,0.311,0.71,0,0.952,0.365,0.64,0,0.708,,,,,,,,,,,,,0.338,0.76,0,0.988,,,,
03759,20110929,-78.47,38,0.324,0.76,0,0.952,0.377,0.7,0,0.851,,,,,,,,,,,,,0.351,0.81,0,0.988,,,,
03759,20110930,-78.47,38,0.336,0.81,0,1,0.388,0.74,0,0.994,,,,,,,,,,,,,0.362,0.85,0,1,,,,
03759,20111001,-78.47,38,0.338,0.78,0,1,0.385,0.71,0,1,,,,,,,,,,,,,0.362,0.81,0,1,,,,
03759,20111002,-78.47,38,0.34,0.74,0,1,0.383,0.67,0,1,,,,,,,,,,,,,0.361,0.76,0,1,,,,
03759,20111003,-78.47,38,0.336,0.68,0,0.97,0.377,0.61,0,0.988,,,,,,,,,,,,,0.357,0.69,0,1,,,,
03759,20111004,-78.47,38,0.335,0.62,0,0.958,0.371,0.55,0,0.863,,,,,,,,,,,,,0.353,0.63,0,1,,,,
03759,20111005,-78.47,38,0.331,0.56,0,0.851,0.365,0.48,0,0.72,,,,,,,,,,,,,0.348,0.56,0,0.97,,,,
03759,20111006,-78.47,38,0.323,0.48,0,0.708,0.358,0.42,0,0.577,,,,,,,,,,,,,0.34,0.49,0,0.827,,,,
03759,20111007,-78.47,38,0.314,0.4,0,0.565,0.352,0.36,0,0.435,,,,,,,,,,,,,0.333,0.42,0,0.685,,,,
03759,20111008,-78.47,38,0.305,0.32,0,0.423,0.346,0.32,0,0.292,,,,,,,,,,,,,0.325,0.36,0,0.542,,,,
03759,20111009,-78.47,38,0.295,0.24,0,0.28,0.34,0.27,0,0.149,,,,,,,,,,,,,0.317,0.29,0,0.399,,,,
03759,20111010,-78.47,38,0.284,0.15,0,0.167,0.334,0.22,0,0.018,,,,,,,,,,,,,0.309,0.22,0,0.256,,,,
03759,20111011,-78.47,38,0.269,0.04,0,0.036,0.326,0.16,0,0,,,,,,,,,,,,,0.297,0.14,0,0.113,,,,
03759,20111012,-78.47,38,0.26,-0.04,0,0.03,0.318,0.11,0,0.012,,,,,,,,,,,,,0.289,0.07,0,0.018,,,,
03759,20111013,-78.47,38,0.28,0.08,0,0.173,0.333,0.23,0,0.155,,,,,,,,,,,,,0.307,0.19,0,0.161,,,,
03759,20111014,-78.47,38,0.297,0.17,0,0.315,0.343,0.3,0,0.298,,,,,,,,,,,,,0.32,0.28,0,0.304,,,,
03759,20111015,-78.47,38,0.315,0.27,0,0.458,0.353,0.37,0,0.44,,,,,,,,,,,,,0.334,0.37,0,0.446,,,,
03759,20111016,-78.47,38,0.332,0.36,0,0.601,0.362,0.43,0,0.583,,,,,,,,,,,,,0.347,0.45,0,0.589,,,,
03759,20111017,-78.47,38,0.346,0.44,0,0.631,0.37,0.49,0,0.726,,,,,,,,,,,,,0.358,0.53,0,0.702,,,,
03759,20111018,-78.47,38,0.358,0.51,0,0.631,0.379,0.55,0,0.851,,,,,,,,,,,,,0.368,0.59,0,0.702,,,,
03759,20111019,-78.47,38,0.368,0.56,0,0.637,0.388,0.62,0,0.875,,,,,,,,,,,,,0.378,0.65,0,0.72,,,,
03759,20111020,-78.47,38,0.366,0.55,0,0.637,0.384,0.59,0,0.875,,,,,,,,,,,,,0.375,0.63,0,0.72,,,,
03759,20111021,-78.47,38,0.366,0.55,0,0.637,0.382,0.57,0,0.875,,,,,,,,,,,,,0.374,0.63,0,0.72,,,,
03759,20111022,-78.47,38,0.366,0.55,0,0.637,0.381,0.56,0,0.875,,,,,,,,,,,,,0.374,0.63,0,0.72,,,,
03759,20111023,-78.47,38,0.367,0.56,0,0.637,0.381,0.56,0,0.875,,,,,,,,,,,,,0.374,0.63,0,0.72,,,,
03759,20111024,-78.47,38,0.37,0.58,0,0.726,0.382,0.57,0,0.875,,,,,,,,,,,,,0.376,0.65,0,0.75,,,,
03759,20111025,-78.47,38,0.375,0.61,0,0.726,0.383,0.59,0,0.893,,,,,,,,,,,,,0.379,0.67,0,0.893,,,,
03759,20111026,-78.47,38,0.374,0.62,0,0.69,0.382,0.58,0,0.982,,,,,,,,,,,,,0.378,0.67,0,0.899,,,,
03759,20111027,-78.47,38,0.356,0.49,0,0.548,0.372,0.49,0,0.839,,,,,,,,,,,,,0.364,0.55,0,0.756,,,,
03759,20111028,-78.47,38,0.338,0.38,0,0.405,0.363,0.42,0,0.696,,,,,,,,,,,,,0.351,0.45,0,0.613,,,,
03759,20111029,-78.47,38,0.327,0.31,0,0.292,0.357,0.37,0,0.583,,,,,,,,,,,,,0.342,0.39,0,0.5,,,,
03759,20111030,-78.47,38,0.334,0.37,0,0.292,0.362,0.39,0,0.583,,,,,,,,,,,,,0.348,0.44,0,0.5,,,,
03759,20111031,-78.47,38,0.342,0.44,0,0.315,0.364,0.41,0,0.583,,,,,,,,,,,,,0.353,0.47,0,0.5,,,,
03759,20111101,-78.47,38,0.349,0.51,0,0.458,0.366,0.42,0,0.583,,,,,,,,,,,,,0.358,0.52,0,0.5,,,,
03759,20111102,-78.47,38,0.358,0.59,0,0.601,0.369,0.44,0,0.601,,,,,,,,,,,,,0.363,0.57,0,0.601,,,,
03759,20111103,-78.47,38,0.367,0.67,0,0.744,0.372,0.46,0,0.744,,,,,,,,,,,,,0.369,0.63,0,0.744,,,,
03759,20111104,-78.47,38,0.376,0.75,0,0.887,0.375,0.49,0,0.887,,,,,,,,,,,,,0.376,0.68,0,0.887,,,,
03759,20111105,-78.47,38,0.381,0.8,0,1,0.377,0.5,0,0.964,,,,,,,,,,,,,0.379,0.71,0,1,,,,
03759,20111106,-78.47,38,0.367,0.71,0,1,0.369,0.43,0,0.833,,,,,,,,,,,,,0.368,0.63,0,1,,,,
03759,20111107,-78.47,38,0.355,0.63,0,0.935,0.363,0.37,0,0.69,,,,,,,,,,,,,0.359,0.56,0,0.923,,,,
03759,20111108,-78.47,38,0.342,0.54,0,0.792,0.357,0.32,0,0.548,,,,,,,,,,,,,0.349,0.49,0,0.78,,,,
03759,20111109,-78.47,38,0.329,0.44,0,0.649,0.351,0.27,0,0.405,,,,,,,,,,,,,0.34,0.41,0,0.637,,,,
03759,20111110,-78.47,38,0.316,0.35,0,0.506,0.345,0.23,0,0.262,,,,,,,,,,,,,0.331,0.34,0,0.494,,,,
03759,20111111,-78.47,38,0.305,0.26,0,0.363,0.34,0.19,0,0.119,,,,,,,,,,,,,0.322,0.27,0,0.351,,,,
03759,20111112,-78.47,38,0.293,0.18,0,0.22,0.334,0.14,0,0.012,,,,,,,,,,,,,0.313,0.2,0,0.208,,,,
03759,20111113,-78.47,38,0.282,0.09,0,0.077,0.328,0.1,0,0,,,,,,,,,,,,,0.305,0.13,0,0.065,,,,
03759,20111114,-78.47,38,0.271,0.01,0,0,0.321,0.05,0,0,,,,,,,,,,,,,0.296,0.06,0,0,,,,
03759,20111115,-78.47,38,0.262,-0.06,0,0,0.314,0,0,0,,,,,,,,,,,,,0.288,-0.01,0,0,,,,
03759,20111116,-78.47,38,0.255,-0.11,0,0,0.308,-0.05,0,0,,,,,,,,,,,,,0.281,-0.06,0,0,,,,
03759,20111117,-78.47,38,0.272,0.01,0,0.131,0.314,0,0,0.083,,,,,,,,,,,,,0.293,0.04,0,0.089,,,,
03759,20111118,-78.47,38,0.293,0.15,0,0.274,0.325,0.09,0,0.226,,,,,,,,,,,,,0.309,0.17,0,0.232,,,,
03759,20111119,-78.47,38,0.312,0.28,0,0.417,0.335,0.18,0,0.369,,,,,,,,,,,,,0.324,0.29,0,0.375,,,,
03759,20111120,-78.47,38,0.332,0.41,0,0.56,0.346,0.26,0,0.512,,,,,,,,,,,,,0.339,0.41,0,0.518,,,,
03759,20111121,-78.47,38,0.351,0.54,0,0.702,0.357,0.35,0,0.655,,,,,,,,,,,,,0.354,0.53,0,0.661,,,,
03759,20111122,-78.47,38,0.369,0.66,0,0.845,0.369,0.45,0,0.798,,,,,,,,,,,,,0.369,0.65,0,0.804,,,,
03759,20111123,-78.47,38,0.397,0.84,0,0.988,0.386,0.58,0,0.94,,,,,,,,,,,,,0.392,0.82,0,0.946,,,,
03759,20111124,-78.47,38,0.401,0.84,0,1,0.392,0.62,0,1,,,,,,,,,,,,,0.397,0.84,0,1,,,,
03759,20111125,-78.47,38,0.4,0.8,0,1,0.39,0.59,0,1,,,,,,,,,,,,,0.395,0.81,0,1,,,,
03759,20111126,-78.47,38,0.399,0.77,0,1,0.39,0.57,0,1,,,,,,,,,,,,,0.394,0.78,0,1,,,,
03759,20111127,-78.47,38,0.397,0.73,0,1,0.389,0.55,0,1,,,,,,,,,,,,,0.393,0.74,0,1,,,,
03759,20111128,-78.47,38,0.394,0.68,0,0.911,0.388,0.53,0,0.887,,,,,,,,,,,,,0.391,0.71,0,1,,,,
03759,20111129,-78.47,38,0.392,0.65,0,0.78,0.387,0.51,0,0.75,,,,,,,,,,,,,0.39,0.68,0,0.899,,,,
03759,20111130,-78.47,38,0.393,0.64,0,0.78,0.388,0.51,0,0.75,,,,,,,,,,,,,0.39,0.67,0,0.899,,,,
03759,20111201,-78.47,38,0.392,0.63,0,0.78,0.387,0.51,0,0.75,,,,,,,,,,,,,0.389,0.64,0,0.899,,,,
03759,20111202,-78.47,38,0.392,0.62,0,0.78,0.387,0.51,0,0.75,,,,,,,,,,,,,0.39,0.63,0,0.899,,,,
03759,20111203,-78.47,38,0.394,0.61,0,0.78,0.388,0.51,0,0.75,,,,,,,,,,,,,0.391,0.62,0,0.899,,,,
03759,20111204,-78.47,38,0.396,0.61,0,0.78,0.388,0.52,0,0.75,,,,,,,,,,,,,0.392,0.62,0,0.899,,,,
03759,20111205,-78.47,38,0.4,0.61,0,0.869,0.39,0.53,0,0.863,,,,,,,,,,,,,0.395,0.63,0,0.899,,,,
03759,20111206,-78.47,38,0.403,0.61,0,0.97,0.39,0.54,0,1,,,,,,,,,,,,,0.397,0.63,0,1,,,,
03759,20111207,-78.47,38,0.406,0.6,0,0.97,0.392,0.55,0,1,,,,,,,,,,,,,0.399,0.63,0,1,,,,
03759,20111208,-78.47,38,0.417,0.65,0,0.97,0.4,0.61,0,1,,,,,,,,,,,,,0.408,0.69,0,1,,,,
03759,20111209,-78.47,38,0.422,0.65,0,0.97,0.402,0.63,0,1,,,,,,,,,,,,,0.412,0.7,0,1,,,,
03759,20111210,-78.47,38,0.426,0.65,0,0.97,0.404,0.63,0,1,,,,,,,,,,,,,0.415,0.7,0,1,,,,
03759,20111211,-78.47,38,0.431,0.65,0,0.97,0.406,0.63,0,1,,,,,,,,,,,,,0.419,0.71,0,1,,,,
03759,20111212,-78.47,38,0.436,0.65,0,0.97,0.408,0.63,0,1,,,,,,,,,,,,,0.422,0.71,0,1,,,,
03759,20111213,-78.47,38,0.442,0.66,0,1,0.41,0.62,0,0.905,,,,,,,,,,,,,0.426,0.71,0,1,,,,
03759,20111214,-78.47,38,0.435,0.58,0,0.911,0.404,0.55,0,0.762,,,,,,,,,,,,,0.419,0.63,0,0.929,,,,
03759,20111215,-78.47,38,0.421,0.47,0,0.768,0.394,0.43,0,0.619,,,,,,,,,,,,,0.408,0.52,0,0.786,,,,
03759,20111216,-78.47,38,0.414,0.4,0,0.625,0.391,0.37,0,0.476,,,,,,,,,,,,,0.402,0.45,0,0.643,,,,
03759,20111217,-78.47,38,0.412,0.37,0,0.565,0.388,0.33,0,0.333,,,,,,,,,,,,,0.4,0.41,0,0.571,,,,
03759,20111218,-78.47,38,0.413,0.37,0,0.565,0.388,0.3,0,0.19,,,,,,,,,,,,,0.4,0.41,0,0.571,,,,
03759,20111219,-78.47,38,0.414,0.36,0,0.565,0.387,0.29,0,0.048,,,,,,,,,,,,,0.401,0.4,0,0.571,,,,
03759,20111220,-78.47,38,0.415,0.35,0,0.482,0.387,0.27,0,0,,,,,,,,,,,,,0.401,0.4,0,0.536,,,,
03759,20111221,-78.47,38,0.415,0.34,0,0.429,0.386,0.26,0,0,,,,,,,,,,,,,0.401,0.38,0,0.476,,,,